Date String (YYYY-MM-DD hh:mm:ss) UTC,Instrument flags,absolute air pressure of the measurement (hPa),sample flow rate (lpm),inlet stack bypass flow (lpm),air temperature of the measurement (°C),ambient temperature measured by the external sensor (°C),aerosol sample conditioner tube jacket temperature (°C),OPC LED temperature (°C),internal box temperature (°C),relative humidity of the measurement (%),span deviation,mass concentration of particles derived from Lorenz-Mie calculation of OPC scattering (μg/m³),mass concentration of particles derived from Lorenz-Mie calculation of OPC scattering (μg/m³),mass concentration of particles derived from Lorenz-Mie calculation of OPC scattering (μg/m³)
DateTimeUTC,F1_M11,P_M11,Q1_M11,Q2_M11,T1_M11,T2_M11,T3_M11,T4_M11,T5_M11,U1_M11,ZSPAN_M11,X0_M11,X2_M11,X1_M11
2024-04-25 12:00:00,SystemResetWarning,0824.3,5.00,000.00,026.2,025.5,000.0,034.8,028.1,026.3,0001.1,0030.53,0009.83,0007.54
2024-04-25 12:01:00,SystemResetWarning,0824.3,5.00,000.00,026.2,025.4,000.0,034.8,028.1,026.8,0001.1,0028.74,0009.85,0007.53
2024-04-25 12:02:00,SystemResetWarning,0824.3,5.01,000.00,026.2,025.4,000.0,034.8,028.0,026.6,0001.0,0029.22,0009.93,0007.55
2024-04-25 12:03:00,SystemResetWarning,0824.4,5.01,000.00,026.2,025.4,000.0,034.8,028.0,026.5,0001.1,0030.55,0009.90,0007.55
2024-04-25 12:04:00,SystemResetWarning,0824.4,4.99,000.00,026.2,025.4,000.0,034.8,028.0,026.5,0000.9,0030.00,0009.98,0007.56
2024-04-25 12:05:00,SystemResetWarning,0824.3,4.98,000.00,026.2,025.4,000.0,034.8,028.0,026.5,0000.9,0029.47,0009.94,0007.56
2024-04-25 12:06:00,SystemResetWarning,0824.3,5.00,000.00,026.2,025.4,000.0,034.8,028.0,026.4,0001.2,0027.95,0009.85,0007.55
2024-04-25 12:07:00,SystemResetWarning,0824.4,5.00,000.00,026.2,025.4,000.0,034.8,028.0,026.4,0001.2,0028.88,0009.77,0007.54
2024-04-25 12:08:00,SystemResetWarning,0824.4,5.01,000.00,026.2,025.4,000.0,034.8,028.0,026.5,0000.8,0028.02,0009.70,0007.53
2024-04-25 12:09:00,SystemResetWarning,0824.4,5.01,000.00,026.2,025.4,000.0,034.8,028.0,026.4,0000.8,0027.50,0009.64,0007.54
2024-04-25 12:10:00,SystemResetWarning,0824.4,5.00,000.00,026.2,025.4,000.0,034.8,028.0,026.4,0000.8,0027.72,0009.63,0007.54
2024-04-25 12:11:00,SystemResetWarning,0824.3,4.99,000.00,026.2,025.4,000.0,034.8,028.0,026.4,0000.6,0027.85,0009.68,0007.54
2024-04-25 12:12:00,SystemResetWarning,0824.4,5.00,000.00,026.2,025.4,000.0,034.8,028.0,026.4,0000.6,0028.22,0009.70,0007.54
2024-04-25 12:13:00,SystemResetWarning,0824.3,4.99,000.00,026.2,025.4,000.0,034.8,028.0,026.3,0001.0,0029.86,0009.66,0007.55
2024-04-25 12:14:00,SystemResetWarning,0824.4,5.00,000.00,026.2,025.4,000.0,034.8,028.0,026.3,0001.1,0029.64,0009.66,0007.54
2024-04-25 12:15:00,SystemResetWarning,0824.3,5.01,000.00,026.2,025.4,000.0,034.8,028.0,026.3,0001.5,0029.22,0009.58,0007.54
2024-04-25 12:16:00,SystemResetWarning,0824.4,5.00,000.00,026.2,025.4,000.0,034.8,028.0,026.3,0002.1,0029.95,0009.54,0007.52
2024-04-25 12:17:00,SystemResetWarning,0824.3,5.00,000.00,026.2,025.4,000.0,034.8,028.0,026.3,0001.8,0031.04,0009.56,0007.51
2024-04-25 12:18:00,SystemResetWarning,0824.3,5.00,000.00,026.2,025.4,000.0,034.8,028.0,026.3,0001.8,0030.55,0009.66,0007.52
2024-04-25 12:19:00,SystemResetWarning,0824.3,5.00,000.00,026.2,025.4,000.0,034.8,028.0,026.3,0002.1,0030.27,0009.67,0007.50
2024-04-25 12:20:00,SystemResetWarning,0824.3,5.00,000.00,026.2,025.4,000.0,034.8,028.0,026.3,0002.2,0030.57,0009.68,0007.49
2024-04-25 12:21:00,SystemResetWarning,0824.3,5.00,000.00,026.2,025.4,000.0,034.8,028.0,026.3,0002.0,0028.96,0009.69,0007.50
2024-04-25 12:22:00,SystemResetWarning,0824.2,5.00,000.00,026.2,025.4,000.0,034.8,028.0,026.4,0002.0,0028.36,0009.65,0007.48
2024-04-25 12:23:00,SystemResetWarning,0824.1,5.00,000.00,026.2,025.4,000.0,034.8,028.0,026.4,0002.2,0028.42,0009.61,0007.50
2024-04-25 12:24:00,SystemResetWarning,0824.2,5.00,000.00,026.2,025.4,000.0,034.8,028.0,026.5,0002.2,0027.51,0009.62,0007.50
2024-04-25 12:25:00,SystemResetWarning,0824.2,5.00,000.00,026.2,025.4,000.0,034.8,028.0,026.5,0002.3,0026.11,0009.68,0007.52
2024-04-25 12:26:00,SystemResetWarning,0824.3,5.01,000.00,026.1,025.4,000.0,034.7,028.0,026.5,0001.8,0025.31,0009.72,0007.51
2024-04-25 12:27:00,SystemResetWarning,0824.3,5.00,000.00,026.1,025.4,000.0,034.7,028.0,026.5,0001.5,0024.99,0009.80,0007.53
2024-04-25 12:28:00,SystemResetWarning,0824.3,4.99,000.00,026.1,025.3,000.0,034.7,028.0,026.6,0001.3,0024.02,0009.85,0007.54
2024-04-25 12:29:00,SystemResetWarning,0824.3,4.99,000.00,026.1,025.3,000.0,034.7,028.0,026.6,0001.5,0023.95,0009.84,0007.54
2024-04-25 12:30:00,SystemResetWarning,0824.3,5.01,000.00,026.1,025.3,000.0,034.7,028.0,026.6,0001.2,0024.34,0009.82,0007.56
2024-04-25 12:31:00,SystemResetWarning,0824.3,5.02,000.00,026.1,025.3,000.0,034.7,028.0,026.7,0000.9,0024.13,0009.87,0007.58
2024-04-25 12:32:00,SystemResetWarning,0824.4,5.00,000.00,026.1,025.3,000.0,034.7,028.0,026.8,0001.1,0023.93,0009.87,0007.59
2024-04-25 12:33:00,SystemResetWarning,0824.4,5.00,000.00,026.1,025.3,000.0,034.7,028.0,027.3,0001.6,0024.46,0009.93,0007.60
2024-04-25 12:34:00,SystemResetWarning,0824.3,4.99,000.00,026.1,025.3,000.0,034.7,028.0,027.0,0001.8,0025.07,0009.97,0007.59
2024-04-25 12:35:00,SystemResetWarning,0824.3,5.01,000.00,026.1,025.4,000.0,034.7,028.0,027.0,0001.5,0025.05,0009.97,0007.59
2024-04-25 12:36:00,SystemResetWarning,0824.4,5.01,000.00,026.1,025.4,000.0,034.7,028.0,027.0,0001.5,0024.94,0009.96,0007.58
2024-04-25 12:37:00,SystemResetWarning,0824.4,4.99,000.00,026.1,025.4,000.0,034.7,028.0,027.0,0001.6,0025.35,0009.93,0007.58
2024-04-25 12:38:00,SystemResetWarning,0824.4,4.99,000.00,026.1,025.4,000.0,034.7,028.0,027.0,0001.3,0024.87,0009.86,0007.59
2024-04-25 12:39:00,SystemResetWarning,0824.3,5.01,000.00,026.1,025.4,000.0,034.7,028.0,027.0,0001.3,0024.86,0009.83,0007.57
2024-04-25 12:40:00,SystemResetWarning,0824.3,5.00,000.00,026.1,025.4,000.0,034.7,028.0,027.1,0001.2,0024.55,0009.76,0007.56
2024-04-25 12:41:00,SystemResetWarning,0824.3,5.00,000.00,026.1,025.4,000.0,034.7,028.0,027.1,0001.4,0024.20,0009.80,0007.56
2024-04-25 12:42:00,SystemResetWarning,0824.3,5.00,000.00,026.1,025.4,000.0,034.7,028.0,027.1,0001.8,0024.46,0009.81,0007.55
2024-04-25 12:43:00,SystemResetWarning,0824.3,5.00,000.00,026.1,025.4,000.0,034.7,028.0,027.1,0001.7,0024.28,0009.78,0007.54
2024-04-25 12:44:00,SystemResetWarning,0824.3,4.99,000.00,026.1,025.4,000.0,034.7,028.0,027.1,0001.5,0024.21,0009.77,0007.53
2024-04-25 12:45:00,SystemResetWarning,0824.4,4.99,000.00,026.1,025.3,000.0,034.7,028.0,027.1,0001.1,0023.25,0009.67,0007.50
2024-04-25 12:46:00,SystemResetWarning,0824.4,4.99,000.00,026.1,025.3,000.0,034.7,028.0,027.1,0001.1,0023.03,0009.68,0007.49
2024-04-25 12:47:00,SystemResetWarning,0824.4,5.02,000.00,026.1,025.3,000.0,034.7,028.0,027.1,0001.1,0023.40,0009.67,0007.48
2024-04-25 12:48:00,SystemResetWarning,0824.4,5.00,000.00,026.1,025.3,000.0,034.7,028.0,027.1,0001.3,0023.66,0009.63,0007.48
2024-04-25 12:49:00,SystemResetWarning,0824.4,4.99,000.00,026.1,025.3,000.0,034.7,028.0,027.1,0001.9,0024.11,0009.64,0007.47
2024-04-25 12:50:00,SystemResetWarning,0824.4,4.99,000.00,026.1,025.3,000.0,034.7,027.9,027.1,0002.3,0024.41,0009.65,0007.48
2024-04-25 12:51:00,SystemResetWarning,0824.4,5.01,000.00,026.1,025.3,000.0,034.7,027.9,027.2,0002.1,0024.25,0009.62,0007.49
2024-04-25 12:52:00,SystemResetWarning,0824.4,5.00,000.00,026.1,025.3,000.0,034.7,027.9,027.2,0002.2,0023.21,0009.63,0007.50
2024-04-25 12:53:00,SystemResetWarning,0824.4,4.99,000.00,026.1,025.3,000.0,034.7,028.0,027.1,0002.1,0023.29,0009.64,0007.51
2024-04-25 12:54:00,SystemResetWarning,0824.4,4.99,000.00,026.1,025.3,000.0,034.7,028.0,027.1,0002.3,0023.65,0009.60,0007.50
2024-04-25 12:55:00,SystemResetWarning,0824.4,5.00,000.00,026.1,025.3,000.0,034.7,028.0,027.1,0002.4,0023.53,0009.59,0007.50
2024-04-25 12:56:00,SystemResetWarning,0824.3,5.02,000.00,026.1,025.3,000.0,034.7,027.9,027.2,0002.6,0024.12,0009.65,0007.52
2024-04-25 12:57:00,SystemResetWarning,0824.3,5.01,000.00,026.1,025.3,000.0,034.7,028.0,027.2,0002.7,0024.15,0009.69,0007.53
2024-04-25 12:58:00,SystemResetWarning,0824.4,4.99,000.00,026.1,025.3,000.0,034.7,028.0,027.3,0002.5,0023.57,0009.71,0007.53
2024-04-25 12:59:00,SystemResetWarning,0824.3,5.00,000.00,026.1,025.3,000.0,034.7,027.9,027.3,0002.3,0022.95,0009.79,0007.54
